,,,PA_Meas_PMT16A,,PR_Meas_QMR101_102,,RH_Meas_QMH101,,SR_Meas_QMS101,,TA_Meas_QMH101,,GenWind,,GenWind,
date,time,status,PA,status,PR,status,RH,status,SR,status,TA,status,DirAvg,status,SpdAvg,
2012-08-07, 00:00:05,VALID,1000.94,VALID,0,VALID,64.249,VALID,0,VALID,27.2545,VALID,194,VALID,4.95664,
2012-08-07, 00:01:05,VALID,1000.92,VALID,0,VALID,64.2414,VALID,0,VALID,27.2349,VALID,184,VALID,7.07188,
2012-08-07, 00:02:05,VALID,1000.95,VALID,0,VALID,64.1041,VALID,0,VALID,27.2545,VALID,196,VALID,5.17656,
2012-08-07, 00:03:05,VALID,1000.92,VALID,0,VALID,63.7073,VALID,0,VALID,27.2935,VALID,188,VALID,5.92109,
2012-08-07, 00:04:05,VALID,1000.94,VALID,0,VALID,63.4479,VALID,0,VALID,27.3717,VALID,194,VALID,5.62695,
2012-08-07, 00:05:05,VALID,1000.96,VALID,0,VALID,63.4021,VALID,0,VALID,27.3912,VALID,181,VALID,3.73633,
2012-08-07, 00:06:05,VALID,1000.9,VALID,0,VALID,63.3335,VALID,0,VALID,27.3912,VALID,189,VALID,4.3832,
2012-08-07, 00:07:05,VALID,1000.86,VALID,0,VALID,63.4174,VALID,0,VALID,27.3717,VALID,179,VALID,3.91328,
2012-08-07, 00:08:05,VALID,1000.83,VALID,0,VALID,63.3945,VALID,0,VALID,27.3305,VALID,182,VALID,3.9918,
2012-08-07, 00:09:05,VALID,1000.85,VALID,0,VALID,63.4556,VALID,0,VALID,27.3521,VALID,182,VALID,4.21328,
2012-08-07, 00:10:05,VALID,1000.78,VALID,0,VALID,63.8523,VALID,0,VALID,27.3131,VALID,188,VALID,4.92695,
2012-08-07, 00:11:05,VALID,1000.77,VALID,0,VALID,63.8447,VALID,0,VALID,27.3326,VALID,199,VALID,5.34844,
2012-08-07, 00:12:05,VALID,1000.73,VALID,0,VALID,63.8981,VALID,0,VALID,27.3326,VALID,187,VALID,3.94258,
2012-08-07, 00:13:05,VALID,1000.77,VALID,0,VALID,63.9286,VALID,0,VALID,27.3326,VALID,192,VALID,4.94688,
2012-08-07, 00:14:05,VALID,1000.66,VALID,0,VALID,63.9362,VALID,0,VALID,27.2935,VALID,205,VALID,5.01016,
2012-08-07, 00:15:05,VALID,1000.67,VALID,0,VALID,63.9133,VALID,0,VALID,27.2719,VALID,184,VALID,5.12891,
2012-08-07, 00:16:05,VALID,1000.66,VALID,0,VALID,64.2185,VALID,0,VALID,27.2329,VALID,196,VALID,3.90898,
2012-08-07, 00:17:05,VALID,1000.69,VALID,0,VALID,64.2033,VALID,0,VALID,27.2329,VALID,189,VALID,5.16055,
2012-08-07, 00:18:05,VALID,1000.65,VALID,0,VALID,64.1575,VALID,0,VALID,27.274,VALID,179,VALID,4.63945,
2012-08-07, 00:19:05,VALID,1000.67,VALID,0,VALID,64.2033,VALID,0,VALID,27.2133,VALID,175,VALID,6.36094,
2012-08-07, 00:20:05,VALID,1000.67,VALID,0,VALID,64.1117,VALID,0,VALID,27.2545,VALID,176,VALID,5.50859,
2012-08-07, 00:21:05,VALID,1000.69,VALID,0,VALID,64.3177,VALID,0,VALID,27.2133,VALID,160,VALID,5.66992,
2012-08-07, 00:22:05,VALID,1000.68,VALID,0,VALID,64.1498,VALID,0,VALID,27.1959,VALID,176,VALID,6.32305,
2012-08-07, 00:23:05,VALID,1000.74,VALID,0,VALID,64.0125,VALID,0,VALID,27.274,VALID,180,VALID,4.77227,
2012-08-07, 00:24:05,VALID,1000.76,VALID,0,VALID,63.9591,VALID,0,VALID,27.2524,VALID,180,VALID,2.85586,
2012-08-07, 00:25:05,VALID,1000.75,VALID,0,VALID,63.9438,VALID,0,VALID,27.2524,VALID,212,VALID,2.48086,
2012-08-07, 00:26:05,VALID,1000.73,VALID,0,VALID,64.1575,VALID,0,VALID,27.2349,VALID,171,VALID,3.8,
2012-08-07, 00:27:05,VALID,1000.79,VALID,0,VALID,64.4855,VALID,0,VALID,27.1938,VALID,177,VALID,4.85938,
2012-08-07, 00:28:05,VALID,1000.72,VALID,0,VALID,64.3711,VALID,0,VALID,27.1763,VALID,170,VALID,5.13047,
2012-08-07, 00:29:05,VALID,1000.73,VALID,0,VALID,64.2109,VALID,0,VALID,27.2349,VALID,187,VALID,4.04766,
2012-08-07, 00:30:05,VALID,1000.74,VALID,0,VALID,64.6381,VALID,0,VALID,27.1959,VALID,167,VALID,4.74531,
2012-08-07, 00:31:05,VALID,1000.74,VALID,0,VALID,64.6839,VALID,0,VALID,27.1157,VALID,180,VALID,5.09961,
2012-08-07, 00:32:05,VALID,1000.71,VALID,0,VALID,64.6076,VALID,0,VALID,27.2154,VALID,186,VALID,3.33789,
2012-08-07, 00:33:05,VALID,1000.69,VALID,0,VALID,64.2033,VALID,0,VALID,27.2133,VALID,193,VALID,3.13672,
2012-08-07, 00:34:05,VALID,1000.65,VALID,0,VALID,64.3787,VALID,0,VALID,27.1938,VALID,188,VALID,3.22852,
2012-08-07, 00:35:05,VALID,1000.64,VALID,0,VALID,64.249,VALID,0,VALID,27.1938,VALID,175,VALID,5.13164,
2012-08-07, 00:36:05,VALID,1000.63,VALID,0,VALID,64.4779,VALID,0,VALID,27.1959,VALID,175,VALID,4.1875,
2012-08-07, 00:37:05,VALID,1000.6,VALID,0,VALID,64.6229,VALID,0,VALID,27.1568,VALID,174,VALID,3.84883,
2012-08-07, 00:38:05,VALID,1000.59,VALID,0,VALID,64.7297,VALID,0,VALID,27.1157,VALID,193,VALID,2.49375,
2012-08-07, 00:39:05,VALID,1000.59,VALID,0,VALID,64.7526,VALID,0,VALID,27.1157,VALID,182,VALID,2.64531,
2012-08-07, 00:40:05,VALID,1000.57,VALID,0,VALID,64.6458,VALID,0,VALID,27.0961,VALID,185,VALID,2.51602,
2012-08-07, 00:41:05,VALID,1000.6,VALID,0,VALID,64.8289,VALID,0,VALID,27.0571,VALID,175,VALID,2.55234,
2012-08-07, 00:42:05,VALID,1000.58,VALID,0,VALID,64.9281,VALID,0,VALID,27.0591,VALID,173,VALID,2.99336,
2012-08-07, 00:43:05,VALID,1000.54,VALID,0,VALID,65.0883,VALID,0,VALID,26.9985,VALID,173,VALID,3.10234,
2012-08-07, 00:44:05,VALID,1000.52,VALID,0,VALID,65.4927,VALID,0,VALID,26.9419,VALID,173,VALID,2.64844,
2012-08-07, 00:45:05,VALID,1000.52,VALID,0,VALID,65.63,VALID,0,VALID,26.8833,VALID,172,VALID,2.52148,
2012-08-07, 00:46:05,VALID,1000.52,VALID,0,VALID,66.0344,VALID,0,VALID,26.7836,VALID,159,VALID,2.18516,
2012-08-07, 00:47:05,VALID,1000.49,VALID,0,VALID,67.6595,VALID,0,VALID,26.7076,VALID,127,VALID,1.80977,
2012-08-07, 00:48:05,VALID,1000.49,VALID,0,VALID,69.7042,VALID,0,VALID,26.3931,VALID,135,VALID,2.32148,
2012-08-07, 00:49:05,VALID,1000.48,VALID,0,VALID,71.7795,VALID,0,VALID,26.0436,VALID,127,VALID,2.72852,
2012-08-07, 00:50:05,VALID,1000.46,VALID,0,VALID,73.2901,VALID,0,VALID,25.7487,VALID,125,VALID,2.34883,
2012-08-07, 00:51:05,VALID,1000.43,VALID,0,VALID,74.3049,VALID,0,VALID,25.573,VALID,123,VALID,1.6375,
2012-08-07, 00:52:05,VALID,1000.43,VALID,0,VALID,75.167,VALID,0,VALID,25.3993,VALID,133,VALID,1.57813,
2012-08-07, 00:53:05,VALID,1000.42,VALID,0,VALID,75.6477,VALID,0,VALID,25.2607,VALID,145,VALID,1.51914,
2012-08-07, 00:54:05,VALID,1000.39,VALID,0,VALID,75.9986,VALID,0,VALID,25.2236,VALID,150,VALID,1.03516,
2012-08-07, 00:55:05,VALID,1000.39,VALID,0,VALID,76.197,VALID,0,VALID,25.1845,VALID,150,VALID,0.715234,
2012-08-07, 00:56:05,VALID,1000.38,VALID,0,VALID,76.5098,VALID,0,VALID,25.126,VALID,128,VALID,1.35859,
2012-08-07, 00:57:05,VALID,1000.33,VALID,0,VALID,76.9218,VALID,0,VALID,25.046,VALID,119,VALID,2.28125,
2012-08-07, 00:58:05,VALID,1000.35,VALID,0,VALID,77.1431,VALID,0,VALID,25.0284,VALID,134,VALID,1.4543,
2012-08-07, 00:59:05,VALID,1000.32,VALID,0,VALID,77.166,VALID,0,VALID,24.9874,VALID,120,VALID,1.85234,
2012-08-07, 01:00:05,VALID,1000.38,VALID,0,VALID,77.2652,VALID,0,VALID,24.9679,VALID,123,VALID,1.92891,
2012-08-07, 01:01:05,VALID,1000.4,VALID,0,VALID,77.3796,VALID,0,VALID,24.9698,VALID,120,VALID,1.70039,
2012-08-07, 01:02:05,VALID,1000.4,VALID,0,VALID,77.6314,VALID,0,VALID,24.9308,VALID,120,VALID,1.42305,
2012-08-07, 01:03:05,VALID,1000.42,VALID,0,VALID,77.9213,VALID,0,VALID,24.8722,VALID,118,VALID,1.20039,
2012-08-07, 01:04:05,VALID,1000.4,VALID,0,VALID,78.2341,VALID,0,VALID,24.8136,VALID,129,VALID,1.55938,
2012-08-07, 01:05:05,VALID,1000.43,VALID,0,VALID,78.4401,VALID,0,VALID,24.7746,VALID,129,VALID,1.64219,
2012-08-07, 01:06:05,VALID,1000.4,VALID,0,VALID,78.5698,VALID,0,VALID,24.7746,VALID,125,VALID,1.28711,
2012-08-07, 01:07:05,VALID,1000.35,VALID,0,VALID,78.6614,VALID,0,VALID,24.7337,VALID,123,VALID,1.02227,
2012-08-07, 01:08:05,VALID,1000.38,VALID,0,VALID,78.7987,VALID,0,VALID,24.6946,VALID,125,VALID,0.641797,
2012-08-07, 01:09:05,VALID,1000.35,VALID,0,VALID,79.0123,VALID,0,VALID,24.6556,VALID,128,VALID,0.798437,
2012-08-07, 01:10:05,VALID,1000.36,VALID,0,VALID,79.0581,VALID,0,VALID,24.6361,VALID,128,VALID,1.6082,
2012-08-07, 01:11:05,VALID,1000.35,VALID,0,VALID,79.0352,VALID,0,VALID,24.6361,VALID,130,VALID,1.52539,
2012-08-07, 01:12:05,VALID,1000.36,VALID,0,VALID,78.9742,VALID,0,VALID,24.6556,VALID,123,VALID,1.01055,
2012-08-07, 01:13:05,VALID,1000.38,VALID,0,VALID,79.0658,VALID,0,VALID,24.6361,VALID,126,VALID,0.935938,
2012-08-07, 01:14:05,VALID,1000.39,VALID,0,VALID,79.1344,VALID,0,VALID,24.6575,VALID,116,VALID,0.426953,
2012-08-07, 01:15:05,VALID,1000.37,VALID,0,VALID,79.2031,VALID,0,VALID,24.6184,VALID,116,VALID,0.342578,
2012-08-07, 01:16:05,VALID,1000.44,VALID,0,VALID,79.287,VALID,0,VALID,24.5775,VALID,116,VALID,0.0714844,
2012-08-07, 01:17:05,VALID,1000.42,VALID,0,VALID,79.4167,VALID,0,VALID,24.5794,VALID,116,VALID,0,
2012-08-07, 01:18:05,VALID,1000.4,VALID,0,VALID,79.6532,VALID,0,VALID,24.558,VALID,116,VALID,0.501172,
2012-08-07, 01:19:05,VALID,1000.37,VALID,0,VALID,79.8135,VALID,0,VALID,24.5794,VALID,140,VALID,0.550781,
2012-08-07, 01:20:05,VALID,1000.37,VALID,0,VALID,80.1034,VALID,0,VALID,24.4995,VALID,281,VALID,0.784375,
2012-08-07, 01:21:05,VALID,1000.33,VALID,0,VALID,80.4543,VALID,0,VALID,24.4409,VALID,288,VALID,0.66875,
2012-08-07, 01:22:05,VALID,1000.35,VALID,0,VALID,80.6527,VALID,0,VALID,24.4037,VALID,288,VALID,0.585156,
2012-08-07, 01:23:05,VALID,1000.31,VALID,0,VALID,80.8816,VALID,0,VALID,24.3452,VALID,288,VALID,0.414453,
2012-08-07, 01:24:05,VALID,1000.32,VALID,0,VALID,81.0037,VALID,0,VALID,24.2848,VALID,288,VALID,0.194531,
2012-08-07, 01:25:05,VALID,1000.3,VALID,0,VALID,81.1715,VALID,0,VALID,24.2653,VALID,288,VALID,0.276953,
2012-08-07, 01:26:05,VALID,1000.3,VALID,0,VALID,81.4004,VALID,0,VALID,24.2281,VALID,288,VALID,0.183203,
2012-08-07, 01:27:05,VALID,1000.32,VALID,0,VALID,81.5606,VALID,0,VALID,24.1872,VALID,288,VALID,0,
2012-08-07, 01:28:05,VALID,1000.32,VALID,0,VALID,81.5149,VALID,0,VALID,24.1482,VALID,288,VALID,0,
2012-08-07, 01:29:05,VALID,1000.32,VALID,0,VALID,81.7438,VALID,0,VALID,24.1305,VALID,288,VALID,0,
2012-08-07, 01:30:05,VALID,1000.32,VALID,0,VALID,81.9726,VALID,0,VALID,24.1305,VALID,288,VALID,0,
2012-08-07, 01:31:05,VALID,1000.29,VALID,0,VALID,82.1329,VALID,0,VALID,24.1092,VALID,288,VALID,0.164453,
2012-08-07, 01:32:05,VALID,1000.32,VALID,0,VALID,82.4152,VALID,0,VALID,24.0897,VALID,288,VALID,0.291797,
2012-08-07, 01:33:05,VALID,1000.29,VALID,0,VALID,82.4075,VALID,0,VALID,24.0701,VALID,288,VALID,0.347266,
2012-08-07, 01:34:05,VALID,1000.33,VALID,0,VALID,82.316,VALID,0.104696,VALID,24.0897,VALID,288,VALID,0.126563,
2012-08-07, 01:35:05,VALID,1000.3,VALID,0,VALID,82.3923,VALID,0,VALID,24.0506,VALID,288,VALID,0,
2012-08-07, 01:36:05,VALID,1000.33,VALID,0,VALID,82.4304,VALID,0,VALID,24.0311,VALID,288,VALID,0,
2012-08-07, 01:37:05,VALID,1000.32,VALID,0,VALID,82.4304,VALID,0,VALID,23.9921,VALID,288,VALID,0,
2012-08-07, 01:38:05,VALID,1000.32,VALID,0,VALID,82.6364,VALID,0,VALID,24.0134,VALID,288,VALID,0.00898437,
2012-08-07, 01:39:05,VALID,1000.3,VALID,0,VALID,82.9492,VALID,0,VALID,23.9921,VALID,288,VALID,0.623828,
2012-08-07, 01:40:05,VALID,1000.29,VALID,0,VALID,82.85,VALID,0,VALID,24.0525,VALID,312,VALID,0.777344,
2012-08-07, 01:41:05,VALID,1000.33,VALID,0,VALID,82.8119,VALID,0,VALID,24.0915,VALID,313,VALID,0.413672,
2012-08-07, 01:42:05,VALID,1000.33,VALID,0,VALID,82.6822,VALID,0,VALID,24.0897,VALID,313,VALID,0.183594,
2012-08-07, 01:43:05,VALID,1000.32,VALID,0,VALID,82.7203,VALID,0,VALID,24.0915,VALID,313,VALID,0.154687,
2012-08-07, 01:44:05,VALID,1000.33,VALID,0,VALID,82.6822,VALID,0,VALID,24.0506,VALID,313,VALID,0.342187,
2012-08-07, 01:45:05,VALID,1000.3,VALID,0,VALID,82.5983,VALID,0,VALID,24.0116,VALID,313,VALID,0.241016,
2012-08-07, 01:46:05,VALID,1000.28,VALID,0,VALID,82.7661,VALID,0,VALID,23.9939,VALID,313,VALID,0.509766,
2012-08-07, 01:47:05,VALID,1000.31,VALID,0,VALID,83.056,VALID,0,VALID,23.9744,VALID,50,VALID,1.15195,
2012-08-07, 01:48:05,VALID,1000.33,VALID,0,VALID,83.201,VALID,0,VALID,23.9531,VALID,53,VALID,0.7,
2012-08-07, 01:49:05,VALID,1000.38,VALID,0,VALID,83.2849,VALID,0,VALID,23.9744,VALID,53,VALID,0.413672,
2012-08-07, 01:50:05,VALID,1000.32,VALID,0,VALID,83.5596,VALID,0,VALID,23.9531,VALID,53,VALID,0.8625,
2012-08-07, 01:51:05,VALID,1000.29,VALID,0,VALID,83.1857,VALID,0,VALID,23.9744,VALID,38,VALID,1.2,
2012-08-07, 01:52:05,VALID,1000.3,VALID,0,VALID,82.9874,VALID,0.104696,VALID,23.9531,VALID,25,VALID,1.39336,
2012-08-07, 01:53:05,VALID,1000.3,VALID,0,VALID,82.8195,VALID,0,VALID,23.9726,VALID,18,VALID,1.26016,
2012-08-07, 01:54:04,VALID,1000.29,VALID,0,VALID,83.3689,VALID,0,VALID,23.9336,VALID,354,VALID,1.10508,
2012-08-07, 01:55:04,VALID,1000.28,VALID,0,VALID,83.7885,VALID,0,VALID,23.875,VALID,297,VALID,0.955859,
2012-08-07, 01:56:04,VALID,1000.28,VALID,0,VALID,84.1852,VALID,0,VALID,23.797,VALID,253,VALID,1.10664,
2012-08-07, 01:57:04,VALID,1000.28,VALID,0,VALID,84.498,VALID,0,VALID,23.8183,VALID,259,VALID,0.449219,
2012-08-07, 01:58:04,VALID,1000.28,VALID,0,VALID,85.0169,VALID,0,VALID,23.8573,VALID,270,VALID,0.560547,
2012-08-07, 01:59:04,VALID,1000.26,VALID,0,VALID,85.0245,VALID,0,VALID,23.8963,VALID,44,VALID,0.915234,
2012-08-07, 02:00:04,VALID,1000.27,VALID,0,VALID,84.7422,VALID,0,VALID,23.9354,VALID,44,VALID,0.704297,
2012-08-07, 02:01:04,VALID,1000.27,VALID,0,VALID,84.2157,VALID,0,VALID,23.9336,VALID,56,VALID,0.630859,
2012-08-07, 02:02:04,VALID,1000.25,VALID,0,VALID,83.8266,VALID,0,VALID,23.9726,VALID,81,VALID,1.10078,
2012-08-07, 02:03:04,VALID,1000.25,VALID,0,VALID,84.0708,VALID,0,VALID,23.9726,VALID,72,VALID,1.25234,
2012-08-07, 02:04:04,VALID,1000.26,VALID,0,VALID,84.2081,VALID,0,VALID,23.9744,VALID,65,VALID,0.563281,
2012-08-07, 02:05:04,VALID,1000.35,VALID,0,VALID,84.292,VALID,0,VALID,23.9531,VALID,97,VALID,1.08242,
2012-08-07, 02:06:04,VALID,1000.38,VALID,0,VALID,84.1242,VALID,0,VALID,23.9726,VALID,100,VALID,1.18945,
2012-08-07, 02:07:04,VALID,1000.37,VALID,0,VALID,84.1471,VALID,0,VALID,23.9726,VALID,78,VALID,1.22109,
2012-08-07, 02:08:04,VALID,1000.43,VALID,0,VALID,84.4523,VALID,0,VALID,23.9531,VALID,67,VALID,1.24063,
2012-08-07, 02:09:04,VALID,1000.41,VALID,0,VALID,84.91,VALID,0,VALID,23.9744,VALID,60,VALID,1.85508,
2012-08-07, 02:10:04,VALID,1000.38,VALID,0,VALID,85.5891,VALID,0,VALID,23.914,VALID,40,VALID,2.37734,
2012-08-07, 02:11:04,VALID,1000.47,VALID,0,VALID,87.2676,VALID,0.104696,VALID,23.836,VALID,63,VALID,1.98203,
2012-08-07, 02:12:04,VALID,1000.51,VALID,0,VALID,87.5346,VALID,0,VALID,23.7988,VALID,69,VALID,2.06133,
2012-08-07, 02:13:04,VALID,1000.52,VALID,0,VALID,87.4736,VALID,0,VALID,23.8165,VALID,77,VALID,2.40469,
2012-08-07, 02:14:04,VALID,1000.51,VALID,0,VALID,87.382,VALID,0,VALID,23.836,VALID,60,VALID,1.79023,
2012-08-07, 02:15:04,VALID,1000.5,VALID,0,VALID,87.4583,VALID,0,VALID,23.836,VALID,53,VALID,1.4707,
2012-08-07, 02:16:04,VALID,1000.58,VALID,0,VALID,87.6262,VALID,0,VALID,23.836,VALID,84,VALID,1.62695,
2012-08-07, 02:17:04,VALID,1000.59,VALID,0,VALID,87.7177,VALID,0,VALID,23.8165,VALID,81,VALID,1.35508,
2012-08-07, 02:18:04,VALID,1000.59,VALID,0,VALID,87.8627,VALID,0,VALID,23.836,VALID,77,VALID,1.39844,
2012-08-07, 02:19:04,VALID,1000.61,VALID,0,VALID,88.0611,VALID,0,VALID,23.8768,VALID,119,VALID,1.6082,
2012-08-07, 02:20:04,VALID,1000.63,VALID,0,VALID,88.0229,VALID,0,VALID,23.9531,VALID,124,VALID,2.7957,
2012-08-07, 02:21:04,VALID,1000.58,VALID,0,VALID,87.9314,VALID,0,VALID,24.0116,VALID,114,VALID,2.29531,
2012-08-07, 02:22:04,VALID,1000.52,VALID,0,VALID,87.733,VALID,0,VALID,24.072,VALID,77,VALID,3.40352,
2012-08-07, 02:23:04,VALID,1000.49,VALID,0,VALID,86.7259,VALID,0,VALID,24.2086,VALID,74,VALID,3.13164,
2012-08-07, 02:24:04,VALID,1000.46,VALID,0,VALID,86.9624,VALID,0,VALID,24.2086,VALID,85,VALID,1.47539,
2012-08-07, 02:25:04,VALID,1000.4,VALID,0,VALID,87.382,VALID,0,VALID,24.1696,VALID,111,VALID,1.61836,
2012-08-07, 02:26:04,VALID,1000.38,VALID,0,VALID,87.6262,VALID,0,VALID,24.1287,VALID,99,VALID,1.90117,
2012-08-07, 02:27:04,VALID,1000.34,VALID,0,VALID,87.4736,VALID,0,VALID,24.1696,VALID,113,VALID,0.892969,
2012-08-07, 02:28:04,VALID,1000.33,VALID,0,VALID,87.382,VALID,0,VALID,24.1891,VALID,139,VALID,0.514063,
2012-08-07, 02:29:04,VALID,1000.33,VALID,0,VALID,87.2981,VALID,0,VALID,24.1872,VALID,160,VALID,0.813672,
2012-08-07, 02:30:04,VALID,1000.3,VALID,0,VALID,87.1532,VALID,0,VALID,24.2263,VALID,161,VALID,0.809766,
2012-08-07, 02:31:04,VALID,1000.32,VALID,0,VALID,85.9782,VALID,0,VALID,24.3043,VALID,151,VALID,1.38008,
2012-08-07, 02:32:04,VALID,1000.32,VALID,0,VALID,83.3307,VALID,0,VALID,24.4428,VALID,153,VALID,0.984375,
2012-08-07, 02:33:04,VALID,1000.31,VALID,0,VALID,82.6593,VALID,0,VALID,24.5385,VALID,172,VALID,1.06523,
2012-08-07, 02:34:04,VALID,1000.3,VALID,0,VALID,82.171,VALID,0,VALID,24.6184,VALID,173,VALID,0.454688,
2012-08-07, 02:35:04,VALID,1000.29,VALID,0,VALID,81.8735,VALID,0,VALID,24.6166,VALID,173,VALID,0.0730469,
2012-08-07, 02:36:04,VALID,1000.31,VALID,0,VALID,82.0947,VALID,0,VALID,24.6166,VALID,172,VALID,0.569922,
2012-08-07, 02:37:04,VALID,1000.3,VALID,0,VALID,82.0108,VALID,0,VALID,24.6166,VALID,134,VALID,0.304297,
2012-08-07, 02:38:04,VALID,1000.32,VALID,0,VALID,81.8506,VALID,0,VALID,24.638,VALID,134,VALID,0.219141,
2012-08-07, 02:39:04,VALID,1000.32,VALID,0,VALID,81.759,VALID,0,VALID,24.6166,VALID,134,VALID,0.543359,
2012-08-07, 02:40:04,VALID,1000.3,VALID,0,VALID,81.8658,VALID,0.104696,VALID,24.6166,VALID,134,VALID,0.164453,
2012-08-07, 02:41:04,VALID,1000.33,VALID,0,VALID,82.0795,VALID,0,VALID,24.5775,VALID,134,VALID,0.217969,
2012-08-07, 02:42:04,VALID,1000.27,VALID,0,VALID,82.4228,VALID,0,VALID,24.519,VALID,134,VALID,0.151562,
2012-08-07, 02:43:04,VALID,1000.29,VALID,0,VALID,82.522,VALID,0,VALID,24.4818,VALID,134,VALID,0,
2012-08-07, 02:44:04,VALID,1000.27,VALID,0,VALID,82.7432,VALID,0,VALID,24.4214,VALID,134,VALID,0.113281,
2012-08-07, 02:45:04,VALID,1000.27,VALID,0,VALID,83.14,VALID,0,VALID,24.3629,VALID,134,VALID,0.191016,
2012-08-07, 02:46:04,VALID,1000.31,VALID,0,VALID,83.3536,VALID,0,VALID,24.3433,VALID,134,VALID,0.251172,
2012-08-07, 02:47:04,VALID,1000.32,VALID,0,VALID,83.1629,VALID,0,VALID,24.3043,VALID,134,VALID,0.390234,
2012-08-07, 02:48:04,VALID,1000.36,VALID,0,VALID,83.5825,VALID,0,VALID,24.2067,VALID,134,VALID,0.368359,
2012-08-07, 02:49:04,VALID,1000.38,VALID,0,VALID,84.1929,VALID,0,VALID,24.1891,VALID,134,VALID,0.572656,
2012-08-07, 02:50:04,VALID,1000.39,VALID,0,VALID,84.3073,VALID,0,VALID,24.1891,VALID,282,VALID,0.832031,
2012-08-07, 02:51:04,VALID,1000.41,VALID,0,VALID,84.2615,VALID,0,VALID,24.1696,VALID,288,VALID,1.075,
2012-08-07, 02:52:04,VALID,1000.39,VALID,0,VALID,84.4523,VALID,0,VALID,24.1696,VALID,303,VALID,0.818359,
2012-08-07, 02:53:04,VALID,1000.4,VALID,0,VALID,84.4141,VALID,0,VALID,24.1677,VALID,301,VALID,0.252344,
2012-08-07, 02:54:04,VALID,1000.36,VALID,0,VALID,84.5209,VALID,0,VALID,24.1677,VALID,302,VALID,0.233984,
2012-08-07, 02:55:04,VALID,1000.36,VALID,0,VALID,84.2768,VALID,0,VALID,24.2086,VALID,79,VALID,0.839063,
2012-08-07, 02:56:04,VALID,1000.43,VALID,0,VALID,84.0784,VALID,0,VALID,24.1891,VALID,67,VALID,0.287109,
2012-08-07, 02:57:04,VALID,1000.43,VALID,0,VALID,83.9182,VALID,0,VALID,24.1677,VALID,67,VALID,0.274609,
2012-08-07, 02:58:04,VALID,1000.45,VALID,0,VALID,83.9334,VALID,0,VALID,24.1287,VALID,67,VALID,0.0453125,
2012-08-07, 02:59:04,VALID,1000.46,VALID,0,VALID,84.0326,VALID,0,VALID,24.15,VALID,67,VALID,0,
2012-08-07, 03:00:04,VALID,1000.49,VALID,0,VALID,84.17,VALID,0,VALID,24.0897,VALID,67,VALID,0.30625,
2012-08-07, 03:01:04,VALID,1000.5,VALID,0,VALID,84.1166,VALID,0,VALID,24.0897,VALID,67,VALID,0.369141,
2012-08-07, 03:02:04,VALID,1000.46,VALID,0,VALID,84.3302,VALID,0,VALID,24.072,VALID,67,VALID,0.521484,
2012-08-07, 03:03:04,VALID,1000.43,VALID,0,VALID,84.3531,VALID,0,VALID,24.0701,VALID,56,VALID,0.608203,
2012-08-07, 03:04:04,VALID,1000.4,VALID,0,VALID,83.5825,VALID,0,VALID,24.0701,VALID,126,VALID,0.816016,
2012-08-07, 03:05:04,VALID,1000.4,VALID,0,VALID,82.7509,VALID,0,VALID,24.2281,VALID,169,VALID,1.48398,
2012-08-07, 03:06:04,VALID,1000.35,VALID,0,VALID,81.0723,VALID,0,VALID,24.5013,VALID,175,VALID,1.46523,
2012-08-07, 03:07:04,VALID,1000.33,VALID,0,VALID,79.5846,VALID,0,VALID,24.7337,VALID,169,VALID,2.17383,
2012-08-07, 03:08:04,VALID,1000.3,VALID,0,VALID,78.2799,VALID,0,VALID,25.0088,VALID,167,VALID,2.27656,
2012-08-07, 03:09:04,VALID,1000.3,VALID,0,VALID,77.2041,VALID,0,VALID,25.165,VALID,169,VALID,2.61953,
2012-08-07, 03:10:04,VALID,1000.26,VALID,0,VALID,76.4717,VALID,0,VALID,25.2802,VALID,164,VALID,2.1082,
2012-08-07, 03:11:04,VALID,1000.26,VALID,0,VALID,75.4875,VALID,0,VALID,25.3973,VALID,171,VALID,2.1832,
2012-08-07, 03:12:04,VALID,1000.26,VALID,0,VALID,75.0831,VALID,0,VALID,25.5359,VALID,152,VALID,1.46172,
2012-08-07, 03:13:04,VALID,1000.28,VALID,0,VALID,74.8237,VALID,0,VALID,25.575,VALID,139,VALID,1.88164,
2012-08-07, 03:14:04,VALID,1000.3,VALID,0,VALID,76.6395,VALID,0,VALID,25.4754,VALID,99,VALID,2.30742,
2012-08-07, 03:15:04,VALID,1000.32,VALID,0,VALID,78.0586,VALID,0,VALID,25.2217,VALID,86,VALID,1.37539,
2012-08-07, 03:16:04,VALID,1000.3,VALID,0,VALID,78.9361,VALID,0,VALID,25.0088,VALID,80,VALID,1.74414,
2012-08-07, 03:17:04,VALID,1000.29,VALID,0,VALID,79.3328,VALID,0,VALID,24.8898,VALID,91,VALID,1.69727,
2012-08-07, 03:18:04,VALID,1000.31,VALID,0,VALID,79.7066,VALID,0,VALID,24.8332,VALID,98,VALID,1.49766,
2012-08-07, 03:19:04,VALID,1000.28,VALID,0,VALID,80.1186,VALID,0,VALID,24.7551,VALID,100,VALID,1.23203,
2012-08-07, 03:20:04,VALID,1000.31,VALID,0,VALID,80.3704,VALID,0,VALID,24.6946,VALID,109,VALID,0.478125,
2012-08-07, 03:21:04,VALID,1000.31,VALID,0,VALID,80.5917,VALID,0,VALID,24.6575,VALID,110,VALID,0.539453,
2012-08-07, 03:22:04,VALID,1000.31,VALID,0,VALID,80.523,VALID,0,VALID,24.6361,VALID,119,VALID,0.968359,
2012-08-07, 03:23:04,VALID,1000.27,VALID,0,VALID,80.2026,VALID,0,VALID,24.677,VALID,142,VALID,0.921875,
2012-08-07, 03:24:04,VALID,1000.27,VALID,0,VALID,79.6456,VALID,0,VALID,24.7551,VALID,127,VALID,1.34648,
2012-08-07, 03:25:04,VALID,1000.2,VALID,0,VALID,79.287,VALID,0,VALID,24.8332,VALID,122,VALID,0.928516,
2012-08-07, 03:26:04,VALID,1000.24,VALID,0,VALID,78.9589,VALID,0,VALID,24.8722,VALID,161,VALID,1.2418,
2012-08-07, 03:27:04,VALID,1000.24,VALID,0,VALID,78.8598,VALID,0,VALID,24.9112,VALID,158,VALID,1.25547,
2012-08-07, 03:28:04,VALID,1000.24,VALID,0,VALID,77.2118,VALID,0,VALID,25.0088,VALID,172,VALID,2.51289,
2012-08-07, 03:29:04,VALID,1000.21,VALID,0,VALID,75.8232,VALID,0,VALID,25.2217,VALID,153,VALID,1.77148,
2012-08-07, 03:30:04,VALID,1000.25,VALID,0,VALID,74.8161,VALID,0,VALID,25.3797,VALID,168,VALID,1.86875,
2012-08-07, 03:31:04,VALID,1000.27,VALID,0,VALID,74.0531,VALID,0,VALID,25.5164,VALID,170,VALID,1.59375,
2012-08-07, 03:32:04,VALID,1000.28,VALID,0,VALID,73.4885,VALID,0,VALID,25.6121,VALID,154,VALID,1.27344,
2012-08-07, 03:33:04,VALID,1000.24,VALID,0,VALID,72.8095,VALID,0,VALID,25.6921,VALID,188,VALID,1.47187,
2012-08-07, 03:34:04,VALID,1000.3,VALID,0,VALID,72.7942,VALID,0,VALID,25.7683,VALID,152,VALID,1.33125,
2012-08-07, 03:35:04,VALID,1000.31,VALID,0,VALID,72.8018,VALID,0,VALID,25.7487,VALID,161,VALID,1.13945,
2012-08-07, 03:36:04,VALID,1000.3,VALID,0,VALID,72.283,VALID,0,VALID,25.7507,VALID,178,VALID,2.75547,
2012-08-07, 03:37:04,VALID,1000.33,VALID,0,VALID,71.2378,VALID,0,VALID,25.946,VALID,179,VALID,2.27422,
2012-08-07, 03:38:04,VALID,1000.3,VALID,0,VALID,70.5969,VALID,0,VALID,26.0416,VALID,162,VALID,2.53125,
2012-08-07, 03:39:04,VALID,1000.34,VALID,0,VALID,70.3527,VALID,0,VALID,26.1002,VALID,191,VALID,1.88711,
2012-08-07, 03:40:04,VALID,1000.35,VALID,0,VALID,69.5516,VALID,0,VALID,26.2193,VALID,186,VALID,2.25859,
2012-08-07, 03:41:04,VALID,1000.38,VALID,0,VALID,69.3304,VALID,0,VALID,26.2974,VALID,189,VALID,2.21797,
2012-08-07, 03:42:04,VALID,1000.33,VALID,0,VALID,68.5216,VALID,0,VALID,26.3756,VALID,158,VALID,4.29453,
2012-08-07, 03:43:04,VALID,1000.32,VALID,0,VALID,68.4453,VALID,0,VALID,26.4146,VALID,175,VALID,3.42188,
2012-08-07, 03:44:04,VALID,1000.34,VALID,0,VALID,68.5293,VALID,0,VALID,26.4341,VALID,189,VALID,1.92656,
2012-08-07, 03:45:04,VALID,1000.33,VALID,0,VALID,68.3309,VALID,0,VALID,26.4341,VALID,175,VALID,2.67383,
2012-08-07, 03:46:04,VALID,1000.29,VALID,0,VALID,67.8502,VALID,0,VALID,26.4927,VALID,175,VALID,4.67891,